Retour au catalogue

STARLINK-33942

ActifCommunicationsVLEO
NORAD 63974·PAYLOAD·🇺🇸 United States

Lancé May 13, 2025 depuis Cape Canaveral Space Force Station

Loading…

Prochains Passages (prochaines 24 heures)

TLE

FraisSource: CelesTrak SupGP

Époque: Sep 14, 2026, 21:18 UTC

1 63974C 25099Y   26257.88798611 -.00004202  00000+0 -15220-3 0  2573
2 63974  43.0023 184.4379 0001254 263.6034 313.4823 15.27584039    14

Suivez STARLINK-33942 en temps réel avec AllMySat

Download on the App Store